Location: Narrabri
(30.3170°S, 149.7830°E)
Time: 11:04:32
(UTC+11:00)

Tiangong 1 - Pass Details

Date: 12 October 2017
Orbit: 293 x 320 km, 42.8° (Epoch: 18 October)

Event Time Altitude Azimuth Distance (km) Brightness Sun altitude
Exits shadow 05:11:15 14° 205° (SSW) 982 3.1 -16.6°
Maximum altitude 05:11:25 14° 200° (SSW) 980 3.1 -16.5°
Drops below altitude 10° 05:12:59 10° 164° (SSE) 1,191 4.0 -16.2°
Sets 05:15:34 0° 137° (SE) 2,028 5.9 -15.7°
